Location: Bailey Inglish Elementary School
(33.5826°N, 96.1780°W)
Time: 02:36:34
(UTC+00:00)

BlueWalker 3 - Visible Passes

Search period start: 24 June 2024 00:00
Search period end: 04 July 2024 00:00
Orbit: 480 x 493 km, 53.2° (Epoch: 23 June)

Date Brightness Start Highest point End Pass type
(mag) Time Alt. Az. Time Alt. Az. Time Alt. Az.
24 Jun 3.6 08:32:46 10° NW 08:34:43 28° NNW 08:34:43 28° NNW visible
25 Jun 4.7 08:07:05 10° NNW 08:07:29 13° NNW 08:07:29 13° NNW visible
29 Jun 5.1 06:24:13 10° NNW 06:24:27 11° NNW 06:24:27 11° NNW visible
30 Jun 5.0 05:58:30 10° NNW 05:59:06 14° NNW 05:59:06 14° NNW visible
01 Jul 4.8 05:32:46 10° NNW 05:33:49 16° NNW 05:33:49 16° NNW visible
02 Jul 4.4 05:07:02 10° NNW 05:08:35 19° N 05:08:35 19° N visible
03 Jul 4.1 04:41:19 10° NNW 04:43:24 22° N 04:43:24 22° N visible
